FIN7012 EFIV-EFHK

Flight info

Callsign FIN7012
Flight time 1h 23m
Altitude 38000
Route SOTI2D SOTIT ROTKO RENVI Y86 LUSEP LUSE5A
Aircraft A320/M-SDE3FGHIRWY/LB1

Departure

Time 2026-05-04 09:21
Airport Ivalo Airport (EFIV)

Arrival

Time 2026-05-04 10:45
Airport Helsinki Vantaa Airport (EFHK)
Time Latitude Longitude Altitude Speed Heading
2026-05-04 08:47 68.60826 27.41763 468 ft 0 kts 135°
2026-05-04 09:14 68.60827 27.41759 476 ft 2 kts 135°
2026-05-04 09:15 68.60845 27.41706 471 ft 4 kts 126°
2026-05-04 09:15 68.60858 27.41644 469 ft 4 kts 105°
2026-05-04 09:15 68.60858 27.41581 472 ft 3 kts 50°
2026-05-04 09:15 68.60853 27.41565 470 ft 0 kts 45°
2026-05-04 09:17 68.60872 27.41617 471 ft 6 kts 45°
2026-05-04 09:18 68.60906 27.41712 473 ft 8 kts 44°
2026-05-04 09:18 68.60954 27.41690 476 ft 7 kts 316°
2026-05-04 09:18 68.60997 27.41579 474 ft 12 kts 316°
2026-05-04 09:18 68.61074 27.41553 476 ft 12 kts 35°
2026-05-04 09:19 68.61141 27.41745 470 ft 18 kts 46°
2026-05-04 09:19 68.61242 27.42041 470 ft 26 kts 47°
2026-05-04 09:19 68.61364 27.42398 476 ft 25 kts 47°
2026-05-04 09:19 68.61444 27.42653 471 ft 10 kts 65°
2026-05-04 09:20 68.61462 27.42692 472 ft 1 kts 313°
2026-05-04 09:20 68.61461 27.42686 472 ft 0 kts 288°
2026-05-04 09:20 68.61453 27.42663 471 ft 3 kts 230°
2026-05-04 09:20 68.61432 27.42598 476 ft 11 kts 227°
2026-05-04 09:21 68.61193 27.41895 473 ft 94 kts 227°
2026-05-04 09:21 68.60589 27.40123 672 ft 144 kts 227°
2026-05-04 09:21 68.59886 27.38063 1502 ft 152 kts 225°
2026-05-04 09:21 68.59137 27.35849 2414 ft 161 kts 226°
2026-05-04 09:22 68.58369 27.33589 3106 ft 164 kts 227°
2026-05-04 09:22 68.57590 27.31296 3785 ft 165 kts 227°
2026-05-04 09:22 68.56803 27.28992 4482 ft 166 kts 227°
2026-05-04 09:22 68.56014 27.26703 5123 ft 168 kts 227°
2026-05-04 09:23 68.55206 27.24356 5734 ft 171 kts 227°
2026-05-04 09:23 68.54382 27.21963 6321 ft 174 kts 227°
2026-05-04 09:23 68.53548 27.19544 6908 ft 176 kts 227°
2026-05-04 09:23 68.52708 27.17097 7547 ft 178 kts 227°
2026-05-04 09:25 68.42943 27.13177 10310 ft 292 kts 176°
2026-05-04 09:25 68.40841 27.13861 10580 ft 315 kts 176°
2026-05-04 09:26 68.38614 27.14587 11158 ft 325 kts 176°
2026-05-04 09:26 68.36352 27.15333 11913 ft 329 kts 176°
2026-05-04 09:26 68.34080 27.16088 12675 ft 333 kts 176°
2026-05-04 09:26 68.31775 27.16850 13493 ft 335 kts 175°
2026-05-04 09:27 68.29445 27.17605 14195 ft 338 kts 176°
2026-05-04 09:27 68.27081 27.18355 14846 ft 342 kts 176°
2026-05-04 09:27 68.24722 27.18933 15478 ft 345 kts 183°
2026-05-04 09:27 68.22345 27.18051 16107 ft 345 kts 198°
2026-05-04 09:28 68.20070 27.15827 16752 ft 348 kts 203°
2026-05-04 09:28 68.17816 27.13512 17379 ft 352 kts 203°
2026-05-04 09:28 68.15499 27.11144 18005 ft 355 kts 203°
2026-05-04 09:28 68.13205 27.08809 18592 ft 358 kts 204°
2026-05-04 09:29 68.10858 27.06427 19213 ft 360 kts 204°
2026-05-04 09:29 68.08497 27.04037 19839 ft 362 kts 204°
2026-05-04 09:29 68.06160 27.01679 20462 ft 363 kts 205°
2026-05-04 09:29 68.03788 26.99289 21093 ft 365 kts 205°
2026-05-04 09:30 68.01406 26.96898 21706 ft 366 kts 205°
2026-05-04 09:30 67.99007 26.94495 22328 ft 366 kts 206°
2026-05-04 09:30 67.96639 26.92133 22970 ft 366 kts 207°
2026-05-04 09:30 67.94237 26.89737 23492 ft 367 kts 207°
2026-05-04 09:31 67.91857 26.87371 23920 ft 370 kts 207°
2026-05-04 09:31 67.89433 26.84974 24328 ft 372 kts 207°
2026-05-04 09:31 67.86992 26.82554 24717 ft 375 kts 207°
2026-05-04 09:31 67.84525 26.80107 25110 ft 377 kts 207°
2026-05-04 09:32 67.82081 26.77685 25490 ft 379 kts 207°
2026-05-04 09:32 67.79591 26.75224 25867 ft 382 kts 207°
2026-05-04 09:34 67.61846 26.57913 28479 ft 392 kts 207°
2026-05-04 09:34 67.59276 26.55421 28805 ft 394 kts 207°
2026-05-04 09:34 67.56724 26.52955 29108 ft 396 kts 207°
2026-05-04 09:34 67.54125 26.50453 29398 ft 399 kts 207°
2026-05-04 09:35 67.51513 26.47947 29678 ft 401 kts 207°
2026-05-04 09:35 67.48894 26.45445 29917 ft 402 kts 207°
2026-05-04 09:35 67.46253 26.42932 30108 ft 405 kts 207°
2026-05-04 09:35 67.43596 26.40412 30295 ft 407 kts 207°
2026-05-04 09:37 67.24846 26.22711 32066 ft 412 kts 206°
2026-05-04 09:37 67.22146 26.20183 32306 ft 413 kts 206°
2026-05-04 09:38 67.19459 26.17674 32539 ft 414 kts 206°
2026-05-04 09:38 67.16735 26.15144 32785 ft 415 kts 205°
2026-05-04 09:38 67.14002 26.12609 33037 ft 416 kts 205°
2026-05-04 09:38 67.11302 26.10107 33280 ft 417 kts 205°
2026-05-04 09:39 67.08551 26.07566 33525 ft 419 kts 205°
2026-05-04 09:39 67.05799 26.05033 33728 ft 420 kts 205°
2026-05-04 09:39 67.03036 26.02501 33933 ft 421 kts 205°
2026-05-04 09:39 67.00308 26.00007 34138 ft 421 kts 205°
2026-05-04 09:40 66.97539 25.97473 34348 ft 422 kts 205°
2026-05-04 09:40 66.94690 25.95401 34549 ft 428 kts 197°
2026-05-04 09:40 66.91759 25.93932 34732 ft 430 kts 197°
2026-05-04 09:40 66.88814 25.92465 34923 ft 430 kts 197°
2026-05-04 09:41 66.85894 25.91010 35089 ft 431 kts 197°
2026-05-04 09:42 66.65168 25.80756 36312 ft 434 kts 196°
2026-05-04 09:43 66.62195 25.79303 36485 ft 435 kts 196°
2026-05-04 09:43 66.59227 25.77854 36632 ft 435 kts 196°
2026-05-04 09:43 66.56251 25.76396 36780 ft 436 kts 196°
2026-05-04 09:43 66.53263 25.74936 36926 ft 437 kts 196°
2026-05-04 09:44 66.50293 25.73492 37071 ft 437 kts 196°
2026-05-04 09:44 66.47305 25.72039 37203 ft 438 kts 196°
2026-05-04 09:44 66.44325 25.70601 37340 ft 438 kts 195°
2026-05-04 09:46 66.24382 25.61078 37697 ft 438 kts 196°
2026-05-04 09:46 66.17388 25.57784 37706 ft 438 kts 195°
2026-05-04 09:47 66.12395 25.55438 37703 ft 438 kts 196°
2026-05-04 09:49 65.87759 25.51984 37733 ft 446 kts 187°
2026-05-04 09:51 65.66041 25.50676 37742 ft 446 kts 187°
2026-05-04 09:51 65.59857 25.50310 37742 ft 446 kts 187°
2026-05-04 09:52 65.53650 25.49940 37739 ft 446 kts 187°
2026-05-04 09:52 65.47444 25.49587 37742 ft 446 kts 187°
2026-05-04 09:53 65.41267 25.49227 37738 ft 445 kts 187°
2026-05-04 09:53 65.35057 25.48879 37728 ft 445 kts 187°
2026-05-04 09:54 65.28877 25.48524 37734 ft 444 kts 187°
2026-05-04 09:54 65.22717 25.48162 37734 ft 444 kts 187°
2026-05-04 09:55 65.16509 25.47784 37730 ft 444 kts 187°
2026-05-04 09:55 65.10367 25.47429 37724 ft 444 kts 187°
2026-05-04 09:56 65.04205 25.47086 37665 ft 443 kts 187°
2026-05-04 09:56 64.98021 25.46744 37702 ft 443 kts 187°
2026-05-04 09:57 64.91856 25.46395 37716 ft 442 kts 187°
2026-05-04 09:57 64.85734 25.46029 37720 ft 442 kts 187°
2026-05-04 09:58 64.79571 25.45678 37719 ft 441 kts 187°
2026-05-04 09:58 64.73436 25.45340 37718 ft 441 kts 187°
2026-05-04 10:00 64.48963 25.43971 37711 ft 439 kts 187°
2026-05-04 10:04 64.06261 25.41656 37695 ft 438 kts 187°
2026-05-04 10:04 64.00168 25.41323 37672 ft 438 kts 187°
2026-05-04 10:05 63.94080 25.41009 37689 ft 437 kts 187°
2026-05-04 10:05 63.88000 25.40688 37687 ft 437 kts 187°
2026-05-04 10:06 63.81931 25.40377 37695 ft 437 kts 187°
2026-05-04 10:06 63.75863 25.40063 37697 ft 437 kts 187°
2026-05-04 10:08 63.54620 25.38947 37649 ft 436 kts 187°
2026-05-04 10:08 63.48549 25.38624 37666 ft 436 kts 187°
2026-05-04 10:09 63.42507 25.38332 37679 ft 436 kts 187°
2026-05-04 10:09 63.36447 25.38034 37685 ft 436 kts 187°
2026-05-04 10:10 63.30373 25.37712 37675 ft 435 kts 187°
2026-05-04 10:10 63.24333 25.37391 37693 ft 435 kts 187°
2026-05-04 10:11 63.18271 25.37087 37695 ft 435 kts 187°
2026-05-04 10:11 63.12204 25.36795 37694 ft 434 kts 187°
2026-05-04 10:12 63.06187 25.36495 37694 ft 434 kts 187°
2026-05-04 10:12 63.00160 25.36182 37658 ft 433 kts 187°
2026-05-04 10:13 62.94134 25.35886 37679 ft 433 kts 187°
2026-05-04 10:13 62.88095 25.35567 37691 ft 433 kts 187°
2026-05-04 10:14 62.82097 25.35259 37694 ft 432 kts 187°
2026-05-04 10:16 62.58021 25.34067 37686 ft 432 kts 187°
2026-05-04 10:16 62.52032 25.33782 37707 ft 432 kts 187°
2026-05-04 10:17 62.46008 25.33488 37712 ft 432 kts 187°
2026-05-04 10:19 62.21977 25.32357 37705 ft 432 kts 187°
2026-05-04 10:19 62.15954 25.32070 37701 ft 432 kts 187°
2026-05-04 10:20 62.09960 25.31773 37473 ft 431 kts 187°
2026-05-04 10:20 62.06954 25.31630 37134 ft 429 kts 188°
2026-05-04 10:20 62.03981 25.31489 36569 ft 426 kts 188°
2026-05-04 10:21 62.01062 25.31352 35984 ft 421 kts 188°
2026-05-04 10:21 61.98151 25.31231 35541 ft 415 kts 189°
2026-05-04 10:21 61.95248 25.31101 34663 ft 418 kts 189°
2026-05-04 10:21 61.92360 25.30958 33834 ft 419 kts 190°
2026-05-04 10:22 61.86518 25.30660 31880 ft 417 kts 189°
2026-05-04 10:22 61.83639 25.30536 31359 ft 408 kts 189°
2026-05-04 10:22 61.80842 25.30423 30758 ft 402 kts 189°
2026-05-04 10:23 61.78054 25.30303 30151 ft 397 kts 189°
2026-05-04 10:23 61.75303 25.30181 29523 ft 392 kts 189°
2026-05-04 10:25 61.57189 25.29326 25686 ft 357 kts 188°
2026-05-04 10:25 61.54710 25.29211 25182 ft 354 kts 188°
2026-05-04 10:25 61.52259 25.29095 24691 ft 351 kts 188°
2026-05-04 10:25 61.49815 25.28975 24208 ft 349 kts 188°
2026-05-04 10:26 61.47401 25.28859 23744 ft 346 kts 188°
2026-05-04 10:26 61.44992 25.28746 23285 ft 344 kts 188°
2026-05-04 10:26 61.42607 25.28638 22793 ft 340 kts 188°
2026-05-04 10:26 61.40274 25.28532 22361 ft 336 kts 188°
2026-05-04 10:27 61.37948 25.28431 21907 ft 331 kts 188°
2026-05-04 10:27 61.35657 25.28333 21521 ft 326 kts 188°
2026-05-04 10:27 61.34157 25.28266 21206 ft 323 kts 188°
2026-05-04 10:27 61.31189 25.28129 20684 ft 318 kts 188°
2026-05-04 10:28 61.29719 25.28060 20406 ft 317 kts 188°
2026-05-04 10:28 61.27511 25.27952 19974 ft 316 kts 188°
2026-05-04 10:28 61.24594 25.27812 19406 ft 315 kts 188°
2026-05-04 10:28 61.23126 25.27741 19109 ft 315 kts 188°
2026-05-04 10:29 61.20923 25.27634 18662 ft 315 kts 188°
2026-05-04 10:29 61.18744 25.27529 18222 ft 316 kts 188°
2026-05-04 10:29 61.16535 25.27425 17743 ft 316 kts 188°
2026-05-04 10:29 61.14332 25.27329 17277 ft 315 kts 188°
2026-05-04 10:30 61.12175 25.27239 16848 ft 312 kts 188°
2026-05-04 10:30 61.10007 25.27149 16414 ft 310 kts 188°
2026-05-04 10:30 61.07849 25.27058 15984 ft 309 kts 188°
2026-05-04 10:30 61.05700 25.26965 15530 ft 307 kts 188°
2026-05-04 10:31 61.03580 25.26871 15130 ft 305 kts 188°
2026-05-04 10:31 61.01459 25.26773 14715 ft 304 kts 188°
2026-05-04 10:32 60.88857 25.26790 12356 ft 292 kts 184°
2026-05-04 10:33 60.86893 25.26968 12217 ft 281 kts 184°
2026-05-04 10:33 60.84960 25.27129 11949 ft 275 kts 184°
2026-05-04 10:33 60.83045 25.27271 11694 ft 272 kts 184°
2026-05-04 10:33 60.81157 25.27396 11433 ft 270 kts 184°
2026-05-04 10:34 60.79289 25.27512 11125 ft 269 kts 184°
2026-05-04 10:34 60.77429 25.27626 10696 ft 269 kts 183°
2026-05-04 10:34 60.75548 25.27745 10325 ft 267 kts 182°
2026-05-04 10:34 60.73683 25.27864 9852 ft 268 kts 182°
2026-05-04 10:35 60.71859 25.27977 9539 ft 263 kts 183°
2026-05-04 10:35 60.70057 25.27488 9088 ft 258 kts 199°
2026-05-04 10:35 60.68447 25.25940 8628 ft 256 kts 214°
2026-05-04 10:35 60.67131 25.23498 8162 ft 256 kts 227°
2026-05-04 10:36 60.65928 25.20787 7788 ft 256 kts 227°
2026-05-04 10:36 60.64765 25.18174 7643 ft 240 kts 226°
2026-05-04 10:36 60.63635 25.15840 7426 ft 228 kts 217°
2026-05-04 10:36 60.62181 25.14520 7281 ft 233 kts 191°
2026-05-04 10:37 60.60598 25.14766 7122 ft 233 kts 165°
2026-05-04 10:37 60.59102 25.16023 6833 ft 232 kts 161°
2026-05-04 10:37 60.57619 25.17324 6513 ft 231 kts 161°
2026-05-04 10:37 60.56143 25.18621 6174 ft 230 kts 161°
2026-05-04 10:39 60.47766 25.25609 4158 ft 195 kts 178°
2026-05-04 10:39 60.46469 25.25505 3951 ft 184 kts 194°
2026-05-04 10:39 60.45312 25.24596 3727 ft 174 kts 212°
2026-05-04 10:40 60.44405 25.23080 3518 ft 165 kts 227°
2026-05-04 10:40 60.43645 25.21384 3303 ft 159 kts 227°
2026-05-04 10:40 60.42917 25.19759 3112 ft 153 kts 226°
2026-05-04 10:40 60.42209 25.18183 2895 ft 148 kts 226°
2026-05-04 10:41 60.41526 25.16661 2701 ft 144 kts 226°
2026-05-04 10:41 60.40868 25.15198 2507 ft 139 kts 226°
2026-05-04 10:41 60.40229 25.13777 2324 ft 135 kts 226°
2026-05-04 10:41 60.39600 25.12378 2143 ft 133 kts 226°
2026-05-04 10:42 60.38981 25.11004 1980 ft 131 kts 227°
2026-05-04 10:42 60.38369 25.09646 1795 ft 130 kts 226°
2026-05-04 10:42 60.37758 25.08290 1602 ft 130 kts 227°
2026-05-04 10:42 60.37149 25.06942 1430 ft 129 kts 226°
2026-05-04 10:43 60.36544 25.05602 1251 ft 129 kts 226°
2026-05-04 10:44 60.32344 24.96313 177 ft 80 kts 227°
2026-05-04 10:45 60.32166 24.95919 177 ft 17 kts 227°
2026-05-04 10:45 60.32066 24.95792 174 ft 15 kts 182°
2026-05-04 10:45 60.31992 24.95909 172 ft 14 kts 136°
2026-05-04 10:45 60.31916 24.96052 167 ft 17 kts 138°
2026-05-04 10:46 60.31857 24.96185 167 ft 12 kts 111°
2026-05-04 10:46 60.31865 24.96336 167 ft 10 kts 64°
2026-05-04 10:46 60.31905 24.96433 167 ft 3 kts 48°
2026-05-04 10:46 60.31909 24.96465 167 ft 2 kts 101°
2026-05-04 10:47 60.31891 24.96509 167 ft 4 kts 137°
2026-05-04 10:47 60.31873 24.96542 167 ft 3 kts 137°
2026-05-04 10:47 60.31871 24.96546 167 ft 0 kts 137°